Retour au catalogue

FENGYUN 1C DEB

ActifSSO
NORAD 30356·DEBRIS·🇨🇳 China

Lancé May 10, 1999 depuis Taiyuan Satellite Launch Center

Loading…

Prochains Passages (prochaines 24 heures)

TLE

FraisSource: Space-Track

Époque: Sep 13, 2026, 23:16 UTC

1 30356U 99025ABT 26256.96985354  .00000656  00000-0  36568-3 0  9990
2 30356  98.6973 249.3411 0051642 223.2001 155.6112 14.13672743  8921

Suivez FENGYUN 1C DEB en temps réel avec AllMySat

Download on the App Store